THOR ABLESTAR DEB, 337

Orbit data source: Space-Track

THOR ABLESTAR DEB, 337 is space debris in LEO originally from a launch on Thu, 29 Jun 1961 UTC launched from the Air Force Eastern Test Range (AFETR). Debris objects in space refer to the collection of defunct objects orbiting the Earth. Examples of debris include non-operational satellites, rocket bodies, and fragments generated from explosions, collisions, or faulty payload assembly.

Loading next visibility...
Identifier
337, 1961-015DP
Orbit
LEO
Country
Flag of USUS
Related business
Manufacturer
Unknown
Mission
Spacecraft
Bus & Motor
Unknown
Mass
Unknown
Launch date (UTC)
1961-06-29 (65 years ago)
Launch vehicle
Unknown
Launch site
Air Force Eastern Test Range (AFETR)
Object type
Payload
Rocket body
Debris
Shape & HBR
Unknown shape, 0.1 m
Radar Cross Section
Medium (>0.1 m² and <1 m²)

Expand to show TLE details & history
Last TLE update: 9 hours ago

TLE from 9 hours ago
0 THOR ABLESTAR DEB
1 00337U 61015DP  26178.29781945  .00000379  00000-0  44220-3 0  9999
2 00337  67.0084 258.2931 0108996 253.2151 105.6942 13.76427999246176
Epoch: 2026-06-27T07:08Z
TLE epoch observation values (Epoch: 2026-06-27T07:08:51.600Z)
Latitude
0.00002°
Longitude
-124.33588°
Altitude
1,001.154 km
Speed
7.34 km/s
True Right ascension
17h 13m 10s
True Declination
0° 00' 00"
Sunlit
Object was in full shadow at epoch
Visualization orbit readout
Latitude
Unknown
Longitude
Unknown
Altitude
Unknown
Speed
Unknown
Apparent Right ascension
Unknown
Apparent Declination
Unknown
Sunlit
N/A
Visualization observer readout
Local Sidereal Time
03:08:25
Azimuth
Unknown
Elevation
Unknown
Doppler factor
Unknown
Orbital elements
Apogee altitude
1,055.11 km
Perigee altitude
894.818 km
Semi-major axis
7,353.101 km
Eccentricity
0.0109
Inclination
67.0084°
RAAN
258.2931°
Arg. of periapsis
253.2151°
True anomaly
106.89214°
Mean anomaly
105.6942°
Eccentric anomaly
106.29362°
Mean motion
3.44221 °/min
Orbital period
104.58 mins
BSTAR
0.0004422
Loading maneuver chart data...
Computing Atmospheric mass density...

Documentation

Showing up to 5 results
|